SUPERBIRD-C2

Last updated on Tue Sep 16 2025 00:02:46 GMT+0000 (Coordinated Universal Time)

1 33274U 08038A 25258.57342757 -.00000267 00000+0 00000+0 0 9994 2 33274 1.6476 84.8014 0001171 113.8832 146.4829 1.00272238102974
UTC large
Height (km)
Speed (km/s)
/
Latitude / Longitude
Inclination (degrees)
Orbital Period (minutes)
Azimuth
Elevation
Range (km)
Doppler Factor

Next 0 passes for location: London (51.5072 / 0.1276)

Sorry there are no passes over London.